Simultaneous Nadir Overpasses (SNOs) Predictions

Prediction of SNOs between GOES-17 and NOAA-20 Satellite Orbit:

Table of predicted SNOs for the next 14.0 days since TLE Epoch: 9/14/2024
Index Date Time (GOES-17) GOES-17 Lat,Lon NOAA-20 Lat,Lon Distance(km) Time Diff (sec)
1 09/14/2024 20:32:06 0.01,-104.71 -0.55,-107.30 294.81 80
2 09/15/2024 20:15:58 0.01,-104.71 0.44,-102.75 222.82 80
3 09/17/2024 08:37:43 -0.01,-104.71 0.74,-108.01 376.62 80
4 09/18/2024 08:16:15 -0.00,-104.71 -0.26,-103.47 140.83 80
5 09/19/2024 20:38:08 0.00,-104.71 -0.91,-108.76 461.55 80
6 09/20/2024 20:22:00 0.00,-104.72 0.10,-104.22 56.26 80
7 09/23/2024 08:24:57 -0.00,-104.72 0.03,-104.94 25.37 80
8 09/24/2024 08:03:29 -0.00,-104.71 -0.99,-100.40 491.93 80
9 09/25/2024 20:25:21 0.01,-104.71 -0.19,-105.69 110.81 80
10 09/26/2024 20:09:12 0.01,-104.72 0.78,-101.14 407.17 80
